Time,TemperatureF,DewpointF,PressureIn,WindDirection,WindDirectionDegrees,WindSpeedMPH,WindSpeedGustMPH,Humidity,HourlyPrecipIn,Conditions,Clouds,dailyrainin,SoftwareType,DateUTC
2013-09-11 00:03:00,75.6,34.2,29.19,SSE,158,3.0,8.0,22,0.00,,,0.00,meteohub,2013-09-11 05:03:00,
2013-09-11 00:08:00,75.4,34.0,29.19,South,180,3.0,8.0,22,0.00,,,0.00,meteohub,2013-09-11 05:08:00,
2013-09-11 00:13:00,75.2,33.8,29.19,South,180,5.0,8.0,22,0.00,,,0.00,meteohub,2013-09-11 05:13:00,
2013-09-11 00:18:00,75.2,33.8,29.19,SSE,158,4.0,6.0,22,0.00,,,0.00,meteohub,2013-09-11 05:18:00,
2013-09-11 00:23:00,75.0,34.7,29.19,South,180,4.0,6.0,23,0.00,,,0.00,meteohub,2013-09-11 05:23:00,
2013-09-11 00:28:00,75.0,35.8,29.16,South,180,0.0,6.0,24,0.00,,,0.00,meteohub,2013-09-11 05:28:00,
2013-09-11 00:33:00,74.8,36.7,29.16,South,180,3.0,6.0,25,0.00,,,0.00,meteohub,2013-09-11 05:33:00,
2013-09-11 00:38:00,74.7,36.5,29.16,SE,135,0.0,6.0,25,0.00,,,0.00,meteohub,2013-09-11 05:38:00,
2013-09-11 00:43:00,74.7,36.5,29.16,South,180,3.0,5.0,25,0.00,,,0.00,meteohub,2013-09-11 05:43:00,
2013-09-11 00:48:00,74.7,36.5,29.16,SSE,158,0.0,5.0,25,0.00,,,0.00,meteohub,2013-09-11 05:48:00,
2013-09-11 00:53:00,74.7,37.6,29.16,SSE,158,2.0,6.0,26,0.00,,,0.00,meteohub,2013-09-11 05:53:00,
2013-09-11 00:58:00,74.5,38.3,29.16,SSE,158,7.0,7.0,27,0.00,,,0.00,meteohub,2013-09-11 05:58:00,
2013-09-11 01:03:00,74.5,38.3,29.16,SSW,202,0.0,5.0,27,0.00,,,0.00,meteohub,2013-09-11 06:03:00,
2013-09-11 01:08:00,74.7,40.3,29.16,WSW,248,5.0,8.0,29,0.00,,,0.00,meteohub,2013-09-11 06:08:00,
2013-09-11 01:13:00,74.5,39.2,29.16,SSW,202,2.0,8.0,28,0.00,,,0.00,meteohub,2013-09-11 06:13:00,
2013-09-11 01:18:00,74.5,40.1,29.16,SSE,158,3.0,6.0,29,0.00,,,0.00,meteohub,2013-09-11 06:18:00,
2013-09-11 01:23:00,74.3,40.1,29.16,South,180,3.0,6.0,29,0.00,,,0.00,meteohub,2013-09-11 06:23:00,
2013-09-11 01:28:00,74.3,40.8,29.19,SSW,202,5.0,7.0,30,0.00,,,0.00,meteohub,2013-09-11 06:28:00,
2013-09-11 01:33:00,74.3,40.8,29.19,SSW,202,2.0,7.0,30,0.00,,,0.00,meteohub,2013-09-11 06:33:00,
2013-09-11 01:38:00,74.1,41.5,29.19,SSW,202,5.0,7.0,31,0.00,,,0.00,meteohub,2013-09-11 06:38:00,
2013-09-11 01:44:00,74.3,41.7,29.16,SSW,202,0.0,7.0,31,0.00,,,0.00,meteohub,2013-09-11 06:44:00,
2013-09-11 01:49:00,74.1,41.5,29.16,South,180,8.0,8.0,31,0.00,,,0.00,meteohub,2013-09-11 06:49:00,
2013-09-11 01:54:00,74.1,41.5,29.16,SSE,158,1.0,7.0,31,0.00,,,0.00,meteohub,2013-09-11 06:54:00,
2013-09-11 01:59:00,74.1,41.5,29.16,SSE,158,3.0,8.0,31,0.00,,,0.00,meteohub,2013-09-11 06:59:00,
2013-09-11 02:04:00,74.1,41.5,29.16,SSW,202,5.0,8.0,31,0.00,,,0.00,meteohub,2013-09-11 07:04:00,
2013-09-11 02:09:00,74.1,41.5,29.16,SE,135,0.0,7.0,31,0.00,,,0.00,meteohub,2013-09-11 07:09:00,
2013-09-11 02:14:00,74.1,42.4,29.16,SSE,158,6.0,7.0,32,0.00,,,0.00,meteohub,2013-09-11 07:14:00,
2013-09-11 02:19:00,74.1,42.4,29.16,SSW,202,0.0,7.0,32,0.00,,,0.00,meteohub,2013-09-11 07:19:00,
2013-09-11 02:24:00,74.3,42.6,29.16,South,180,3.0,6.0,32,0.00,,,0.00,meteohub,2013-09-11 07:24:00,
2013-09-11 02:29:00,74.3,42.6,29.16,SSW,202,0.0,8.0,32,0.00,,,0.00,meteohub,2013-09-11 07:29:00,
2013-09-11 02:34:00,74.3,42.6,29.16,NNE,22,3.0,8.0,32,0.00,,,0.00,meteohub,2013-09-11 07:34:00,
2013-09-11 02:39:00,74.3,42.6,29.16,South,180,5.0,6.0,32,0.00,,,0.00,meteohub,2013-09-11 07:39:00,
2013-09-11 02:44:00,74.3,42.6,29.19,SSW,202,0.0,6.0,32,0.00,,,0.00,meteohub,2013-09-11 07:44:00,
2013-09-11 02:49:00,74.1,42.4,29.19,SSE,158,1.0,5.0,32,0.00,,,0.00,meteohub,2013-09-11 07:49:00,
2013-09-11 02:54:00,74.1,42.4,29.19,SSE,158,3.0,5.0,32,0.00,,,0.00,meteohub,2013-09-11 07:54:00,
2013-09-11 02:59:00,74.1,42.4,29.19,SSW,202,3.0,4.0,32,0.00,,,0.00,meteohub,2013-09-11 07:59:00,
2013-09-11 03:04:00,74.1,42.4,29.19,SSW,202,1.0,5.0,32,0.00,,,0.00,meteohub,2013-09-11 08:04:00,
2013-09-11 03:10:00,74.1,42.4,29.19,SSE,158,0.0,6.0,32,0.00,,,0.00,meteohub,2013-09-11 08:10:00,
2013-09-11 03:15:00,73.9,42.3,29.19,SSE,158,0.0,6.0,32,0.00,,,0.00,meteohub,2013-09-11 08:15:00,
2013-09-11 03:20:00,73.8,42.1,29.19,SSE,158,0.0,6.0,32,0.00,,,0.00,meteohub,2013-09-11 08:20:00,
2013-09-11 03:25:00,73.9,42.3,29.19,SSW,202,0.0,6.0,32,0.00,,,0.00,meteohub,2013-09-11 08:25:00,
2013-09-11 03:30:00,73.8,42.1,29.16,SW,225,0.0,6.0,32,0.00,,,0.00,meteohub,2013-09-11 08:30:00,
2013-09-11 03:35:00,73.8,42.1,29.16,SSE,158,0.0,6.0,32,0.00,,,0.00,meteohub,2013-09-11 08:35:00,
2013-09-11 03:40:00,73.6,41.9,29.16,SSE,158,2.0,5.0,32,0.00,,,0.00,meteohub,2013-09-11 08:40:00,
2013-09-11 03:45:00,73.4,41.7,29.16,SE,135,0.0,4.0,32,0.00,,,0.00,meteohub,2013-09-11 08:45:00,
2013-09-11 03:50:00,73.4,41.7,29.16,SSE,158,0.0,4.0,32,0.00,,,0.00,meteohub,2013-09-11 08:50:00,
2013-09-11 03:55:00,73.2,42.4,29.16,SSW,202,0.0,6.0,33,0.00,,,0.00,meteohub,2013-09-11 08:55:00,
2013-09-11 04:00:00,73.2,42.4,29.19,SSE,158,0.0,6.0,33,0.00,,,0.00,meteohub,2013-09-11 09:00:00,
2013-09-11 04:05:00,73.2,42.4,29.19,SSE,158,0.0,6.0,33,0.00,,,0.00,meteohub,2013-09-11 09:05:00,
2013-09-11 04:10:00,73.2,43.2,29.19,SSW,202,0.0,5.0,34,0.00,,,0.00,meteohub,2013-09-11 09:10:00,
2013-09-11 04:16:00,73.0,43.0,29.19,SSW,202,4.0,5.0,34,0.00,,,0.00,meteohub,2013-09-11 09:16:00,
2013-09-11 04:21:00,73.0,43.0,29.19,SSW,202,4.0,6.0,34,0.00,,,0.00,meteohub,2013-09-11 09:21:00,
2013-09-11 04:26:00,72.9,42.8,29.19,South,180,4.0,6.0,34,0.00,,,0.00,meteohub,2013-09-11 09:26:00,
2013-09-11 04:31:00,72.7,42.8,29.19,SSW,202,0.0,6.0,34,0.00,,,0.00,meteohub,2013-09-11 09:31:00,
2013-09-11 04:36:00,72.7,42.8,29.19,SSW,202,0.0,8.0,34,0.00,,,0.00,meteohub,2013-09-11 09:36:00,
2013-09-11 04:41:00,72.7,42.8,29.19,SSE,158,0.0,8.0,34,0.00,,,0.00,meteohub,2013-09-11 09:41:00,
2013-09-11 04:46:00,72.7,42.8,29.19,SE,135,0.0,8.0,34,0.00,,,0.00,meteohub,2013-09-11 09:46:00,
2013-09-11 04:52:00,72.5,42.6,29.19,SSW,202,1.0,5.0,34,0.00,,,0.00,meteohub,2013-09-11 09:52:00,
2013-09-11 04:57:00,72.5,42.6,29.19,SSW,202,0.0,5.0,34,0.00,,,0.00,meteohub,2013-09-11 09:57:00,
2013-09-11 05:02:00,72.3,42.4,29.19,SSW,202,0.0,5.0,34,0.00,,,0.00,meteohub,2013-09-11 10:02:00,
2013-09-11 05:06:00,72.3,43.2,29.19,West,270,1.0,4.0,35,0.00,,,0.00,meteohub,2013-09-11 10:06:00,
2013-09-11 05:12:00,72.3,43.2,29.19,SE,135,3.0,5.0,35,0.00,,,0.00,meteohub,2013-09-11 10:12:00,
2013-09-11 05:17:00,72.3,43.2,29.19,ESE,112,2.0,5.0,35,0.00,,,0.00,meteohub,2013-09-11 10:17:00,
2013-09-11 05:22:00,72.3,43.2,29.19,SSW,202,0.0,4.0,35,0.00,,,0.00,meteohub,2013-09-11 10:22:00,
2013-09-11 05:27:00,72.3,43.2,29.19,SSW,202,3.0,4.0,35,0.00,,,0.00,meteohub,2013-09-11 10:27:00,
2013-09-11 05:32:00,72.3,43.2,29.19,South,180,2.0,4.0,35,0.00,,,0.00,meteohub,2013-09-11 10:32:00,
2013-09-11 05:37:00,72.5,43.3,29.19,West,270,1.0,4.0,35,0.00,,,0.00,meteohub,2013-09-11 10:37:00,
2013-09-11 05:42:00,72.7,43.5,29.19,WSW,248,2.0,6.0,35,0.00,,,0.00,meteohub,2013-09-11 10:42:00,
2013-09-11 05:47:00,72.7,42.8,29.19,SSW,202,3.0,6.0,34,0.00,,,0.00,meteohub,2013-09-11 10:47:00,
2013-09-11 05:52:00,72.9,42.8,29.19,SSW,202,2.0,6.0,34,0.00,,,0.00,meteohub,2013-09-11 10:52:00,
2013-09-11 05:57:00,72.9,42.8,29.19,SSW,202,3.0,5.0,34,0.00,,,0.00,meteohub,2013-09-11 10:57:00,
2013-09-11 06:02:00,73.0,42.3,29.19,SSW,202,4.0,4.0,33,0.00,,,0.00,meteohub,2013-09-11 11:02:00,
2013-09-11 06:07:00,72.9,42.1,29.19,WSW,248,3.0,6.0,33,0.00,,,0.00,meteohub,2013-09-11 11:07:00,
2013-09-11 06:12:00,72.9,42.1,29.19,SSW,202,2.0,6.0,33,0.00,,,0.00,meteohub,2013-09-11 11:12:00,
2013-09-11 06:17:00,72.9,42.1,29.19,South,180,0.0,6.0,33,0.00,,,0.00,meteohub,2013-09-11 11:17:00,
2013-09-11 06:22:00,72.9,42.1,29.19,SSE,158,5.0,5.0,33,0.00,,,0.00,meteohub,2013-09-11 11:22:00,
2013-09-11 06:27:00,72.7,41.9,29.19,SSW,202,0.0,5.0,33,0.00,,,0.00,meteohub,2013-09-11 11:27:00,
2013-09-11 06:32:00,72.7,41.9,29.19,SW,225,0.0,5.0,33,0.00,,,0.00,meteohub,2013-09-11 11:32:00,
2013-09-11 06:37:00,72.5,41.7,29.19,SSW,202,0.0,5.0,33,0.00,,,0.00,meteohub,2013-09-11 11:37:00,
2013-09-11 06:42:00,72.5,41.7,29.19,SW,225,6.0,6.0,33,0.00,,,0.00,meteohub,2013-09-11 11:42:00,
2013-09-11 06:47:00,72.7,41.9,29.22,SSW,202,0.0,6.0,33,0.00,,,0.00,meteohub,2013-09-11 11:47:00,
2013-09-11 06:52:00,72.7,41.9,29.22,SSW,202,3.0,6.0,33,0.00,,,0.00,meteohub,2013-09-11 11:52:00,
2013-09-11 06:57:00,72.9,42.1,29.22,SSE,158,2.0,6.0,33,0.00,,,0.00,meteohub,2013-09-11 11:57:00,
2013-09-11 07:02:00,73.6,41.9,29.22,South,180,2.0,5.0,32,0.00,,,0.00,meteohub,2013-09-11 12:02:00,
2013-09-11 07:07:00,73.6,41.9,29.22,South,180,3.0,6.0,32,0.00,,,0.00,meteohub,2013-09-11 12:07:00,
2013-09-11 07:12:00,73.4,41.7,29.22,WSW,248,3.0,6.0,32,0.00,,,0.00,meteohub,2013-09-11 12:12:00,
2013-09-11 07:17:00,74.3,41.7,29.19,SSW,202,4.0,6.0,31,0.00,,,0.00,meteohub,2013-09-11 12:17:00,
2013-09-11 07:22:00,74.5,40.1,29.19,West,270,2.0,6.0,29,0.00,,,0.00,meteohub,2013-09-11 12:22:00,
2013-09-11 07:27:00,74.7,39.4,29.19,WNW,292,2.0,6.0,28,0.00,,,0.00,meteohub,2013-09-11 12:27:00,
2013-09-11 07:32:00,75.0,38.8,29.19,SSE,158,4.0,6.0,27,0.00,,,0.00,meteohub,2013-09-11 12:32:00,
2013-09-11 07:37:00,75.9,36.5,29.19,SW,225,4.0,6.0,24,0.00,,,0.00,meteohub,2013-09-11 12:37:00,
2013-09-11 07:42:00,77.2,35.4,29.19,WSW,248,3.0,6.0,22,0.00,,,0.00,meteohub,2013-09-11 12:42:00,
2013-09-11 07:47:00,76.5,34.9,29.19,SSW,202,5.0,6.0,22,0.00,,,0.00,meteohub,2013-09-11 12:47:00,
2013-09-11 07:52:00,77.0,34.2,29.19,SSW,202,0.0,6.0,21,0.00,,,0.00,meteohub,2013-09-11 12:52:00,
2013-09-11 07:57:00,77.9,33.6,29.19,South,180,0.0,6.0,20,0.00,,,0.00,meteohub,2013-09-11 12:57:00,
2013-09-11 08:02:00,78.6,31.6,29.19,WSW,248,3.0,6.0,18,0.00,,,0.00,meteohub,2013-09-11 13:02:00,
2013-09-11 08:07:00,78.3,31.3,29.19,WSW,248,3.0,7.0,18,0.00,,,0.00,meteohub,2013-09-11 13:07:00,
2013-09-11 08:12:00,78.8,30.4,29.19,SSW,202,2.0,7.0,17,0.00,,,0.00,meteohub,2013-09-11 13:12:00,
2013-09-11 08:17:00,79.9,22.8,29.19,SSW,202,4.0,6.0,12,0.00,,,0.00,meteohub,2013-09-11 13:17:00,
2013-09-11 08:22:00,80.2,23.2,29.19,SW,225,4.0,6.0,12,0.00,,,0.00,meteohub,2013-09-11 13:22:00,
2013-09-11 08:27:00,80.8,23.5,29.19,SSW,202,6.0,6.0,12,0.00,,,0.00,meteohub,2013-09-11 13:27:00,
2013-09-11 08:32:00,79.5,22.5,29.19,West,270,3.0,6.0,12,0.00,,,0.00,meteohub,2013-09-11 13:32:00,
2013-09-11 08:37:00,79.0,22.1,29.19,SSW,202,2.0,6.0,12,0.00,,,0.00,meteohub,2013-09-11 13:37:00,
2013-09-11 08:42:00,79.2,27.7,29.19,SW,225,0.0,6.0,15,0.00,,,0.00,meteohub,2013-09-11 13:42:00,
2013-09-11 08:47:00,80.8,23.5,29.19,SW,225,5.0,6.0,12,0.00,,,0.00,meteohub,2013-09-11 13:47:00,
2013-09-11 08:52:00,81.5,24.1,29.19,SSW,202,3.0,9.0,12,0.00,,,0.00,meteohub,2013-09-11 13:52:00,
2013-09-11 08:56:00,82.0,17.8,29.19,WSW,248,3.0,9.0,9,0.00,,,0.00,meteohub,2013-09-11 13:56:00,
2013-09-11 09:01:00,82.9,18.3,29.16,West,270,3.0,9.0,9,0.00,,,0.00,meteohub,2013-09-11 14:01:00,
2013-09-11 09:06:00,84.4,16.7,29.16,SW,225,6.0,8.0,8,0.00,,,0.00,meteohub,2013-09-11 14:06:00,
2013-09-11 09:11:00,84.7,17.1,29.16,SSW,202,2.0,8.0,8,0.00,,,0.00,meteohub,2013-09-11 14:11:00,
2013-09-11 09:16:00,84.6,16.9,29.16,SW,225,6.0,9.0,8,0.00,,,0.00,meteohub,2013-09-11 14:16:00,
2013-09-11 09:22:00,84.4,16.7,29.16,WSW,248,3.0,9.0,8,0.00,,,0.00,meteohub,2013-09-11 14:22:00,
2013-09-11 09:27:00,85.6,17.6,29.16,West,270,3.0,9.0,8,0.00,,,0.00,meteohub,2013-09-11 14:27:00,
2013-09-11 09:32:00,87.1,18.7,29.16,WSW,248,5.0,9.0,8,0.00,,,0.00,meteohub,2013-09-11 14:32:00,
2013-09-11 09:37:00,86.7,18.5,29.16,NW,315,8.0,8.0,8,0.00,,,0.00,meteohub,2013-09-11 14:37:00,
2013-09-11 09:42:00,86.5,18.3,29.16,WNW,292,8.0,8.0,8,0.00,,,0.00,meteohub,2013-09-11 14:42:00,
2013-09-11 09:47:00,86.5,18.3,29.19,WSW,248,5.0,8.0,8,0.00,,,0.00,meteohub,2013-09-11 14:47:00,
2013-09-11 09:52:00,87.3,18.9,29.19,SSE,158,3.0,10.0,8,0.00,,,0.00,meteohub,2013-09-11 14:52:00,
2013-09-11 09:57:00,87.1,18.7,29.19,East,90,3.0,10.0,8,0.00,,,0.00,meteohub,2013-09-11 14:57:00,
2013-09-11 10:02:00,87.1,18.7,29.19,SW,225,5.0,10.0,8,0.00,,,0.00,meteohub,2013-09-11 15:02:00,
2013-09-11 10:07:00,86.5,18.3,29.19,WSW,248,5.0,9.0,8,0.00,,,0.00,meteohub,2013-09-11 15:07:00,
2013-09-11 10:12:00,86.0,18.0,29.19,SSW,202,4.0,9.0,8,0.00,,,0.00,meteohub,2013-09-11 15:12:00,
2013-09-11 10:17:00,87.1,18.7,29.19,West,270,6.0,9.0,8,0.00,,,0.00,meteohub,2013-09-11 15:17:00,
2013-09-11 10:22:00,87.6,19.2,29.19,West,270,5.0,9.0,8,0.00,,,0.00,meteohub,2013-09-11 15:22:00,
2013-09-11 10:27:00,89.4,20.5,29.19,SSW,202,4.0,9.0,8,0.00,,,0.00,meteohub,2013-09-11 15:27:00,
2013-09-11 10:32:00,90.0,17.8,29.16,West,270,6.0,9.0,7,0.00,,,0.00,meteohub,2013-09-11 15:32:00,
2013-09-11 10:37:00,91.4,18.9,29.16,WSW,248,6.0,9.0,7,0.00,,,0.00,meteohub,2013-09-11 15:37:00,
2013-09-11 10:42:00,91.4,18.9,29.16,SSW,202,6.0,8.0,7,0.00,,,0.00,meteohub,2013-09-11 15:42:00,
2013-09-11 10:47:00,91.6,18.9,29.19,WNW,292,4.0,8.0,7,0.00,,,0.00,meteohub,2013-09-11 15:47:00,
2013-09-11 10:52:00,93.2,16.5,29.19,SSW,202,5.0,8.0,6,0.00,,,0.00,meteohub,2013-09-11 15:52:00,
2013-09-11 10:57:00,93.2,16.5,29.19,WSW,248,3.0,8.0,6,0.00,,,0.00,meteohub,2013-09-11 15:57:00,
2013-09-11 11:02:00,94.3,17.2,29.16,SSW,202,2.0,8.0,6,0.00,,,0.00,meteohub,2013-09-11 16:02:00,
2013-09-11 11:07:00,93.7,16.9,29.16,NW,315,3.0,9.0,6,0.00,,,0.00,meteohub,2013-09-11 16:07:00,
2013-09-11 11:12:00,94.3,17.2,29.16,WNW,292,5.0,9.0,6,0.00,,,0.00,meteohub,2013-09-11 16:12:00,
2013-09-11 11:17:00,95.0,17.8,29.16,WNW,292,2.0,9.0,6,0.00,,,0.00,meteohub,2013-09-11 16:17:00,
2013-09-11 11:22:00,96.8,19.0,29.16,NNW,338,0.0,9.0,6,0.00,,,0.00,meteohub,2013-09-11 16:22:00,
2013-09-11 11:27:00,97.0,19.2,29.16,WSW,248,3.0,9.0,6,0.00,,,0.00,meteohub,2013-09-11 16:27:00,
2013-09-11 11:32:00,97.2,19.4,29.16,WNW,292,4.0,7.0,6,0.00,,,0.00,meteohub,2013-09-11 16:32:00,
2013-09-11 11:37:00,97.2,19.4,29.16,WNW,292,3.0,6.0,6,0.00,,,0.00,meteohub,2013-09-11 16:37:00,
2013-09-11 11:42:00,96.8,19.0,29.16,WSW,248,6.0,6.0,6,0.00,,,0.00,meteohub,2013-09-11 16:42:00,
2013-09-11 11:47:00,97.2,19.4,29.16,WSW,248,1.0,6.0,6,0.00,,,0.00,meteohub,2013-09-11 16:47:00,
2013-09-11 11:52:00,94.8,17.6,29.16,SW,225,3.0,10.0,6,0.00,,,0.00,meteohub,2013-09-11 16:52:00,
2013-09-11 11:57:00,96.4,18.9,29.16,SSW,202,3.0,10.0,6,0.00,,,0.00,meteohub,2013-09-11 16:57:00,
2013-09-11 12:02:00,95.2,18.0,29.16,NNE,22,3.0,10.0,6,0.00,,,0.00,meteohub,2013-09-11 17:02:00,
2013-09-11 12:07:00,96.3,18.7,29.16,WSW,248,6.0,7.0,6,0.00,,,0.00,meteohub,2013-09-11 17:07:00,
2013-09-11 12:12:00,96.1,18.5,29.16,SE,135,3.0,9.0,6,0.00,,,0.00,meteohub,2013-09-11 17:12:00,
2013-09-11 12:17:00,95.7,18.3,29.16,SSW,202,4.0,9.0,6,0.00,,,0.00,meteohub,2013-09-11 17:17:00,
2013-09-11 12:22:00,97.2,19.4,29.16,WSW,248,4.0,9.0,6,0.00,,,0.00,meteohub,2013-09-11 17:22:00,
2013-09-11 12:27:00,96.4,18.9,29.16,SSW,202,3.0,10.0,6,0.00,,,0.00,meteohub,2013-09-11 17:27:00,
2013-09-11 12:32:00,97.5,19.6,29.16,SSW,202,6.0,10.0,6,0.00,,,0.00,meteohub,2013-09-11 17:32:00,
2013-09-11 12:37:00,97.9,19.8,29.16,SE,135,6.0,10.0,6,0.00,,,0.00,meteohub,2013-09-11 17:37:00,
2013-09-11 12:42:00,96.6,19.0,29.16,SSW,202,5.0,8.0,6,0.00,,,0.00,meteohub,2013-09-11 17:42:00,
2013-09-11 12:47:00,97.7,19.8,29.13,WSW,248,4.0,8.0,6,0.00,,,0.00,meteohub,2013-09-11 17:47:00,
2013-09-11 12:52:00,96.1,18.5,29.13,SSW,202,9.0,9.0,6,0.00,,,0.00,meteohub,2013-09-11 17:52:00,
2013-09-11 12:57:00,95.5,18.1,29.13,West,270,6.0,11.0,6,0.00,,,0.00,meteohub,2013-09-11 17:57:00,
2013-09-11 13:02:00,96.1,18.5,29.13,WSW,248,9.0,13.0,6,0.00,,,0.00,meteohub,2013-09-11 18:02:00,
2013-09-11 13:07:00,96.1,18.5,29.13,WSW,248,6.0,13.0,6,0.00,,,0.00,meteohub,2013-09-11 18:07:00,
2013-09-11 13:12:00,96.8,19.0,29.13,SSW,202,6.0,13.0,6,0.00,,,0.00,meteohub,2013-09-11 18:12:00,
2013-09-11 13:17:00,97.9,19.8,29.13,SSW,202,7.0,11.0,6,0.00,,,0.00,meteohub,2013-09-11 18:17:00,
2013-09-11 13:22:00,97.3,19.4,29.13,SSW,202,6.0,9.0,6,0.00,,,0.00,meteohub,2013-09-11 18:22:00,
2013-09-11 13:27:00,97.3,19.4,29.13,WSW,248,6.0,9.0,6,0.00,,,0.00,meteohub,2013-09-11 18:27:00,
2013-09-11 13:32:00,98.1,19.9,29.13,SW,225,6.0,12.0,6,0.00,,,0.00,meteohub,2013-09-11 18:32:00,
2013-09-11 13:37:00,97.0,19.2,29.13,SSW,202,10.0,15.0,6,0.00,,,0.00,meteohub,2013-09-11 18:37:00,
2013-09-11 13:42:00,98.8,16.3,29.13,SW,225,5.0,15.0,5,0.00,,,0.00,meteohub,2013-09-11 18:42:00,
2013-09-11 13:47:00,98.2,20.1,29.13,SW,225,6.0,15.0,6,0.00,,,0.00,meteohub,2013-09-11 18:47:00,
2013-09-11 13:52:00,98.1,19.9,29.13,SW,225,7.0,14.0,6,0.00,,,0.00,meteohub,2013-09-11 18:52:00,
2013-09-11 13:57:00,98.1,19.9,29.13,SSW,202,10.0,14.0,6,0.00,,,0.00,meteohub,2013-09-11 18:57:00,
2013-09-11 14:02:00,98.8,16.3,29.10,West,270,7.0,13.0,5,0.00,,,0.00,meteohub,2013-09-11 19:02:00,
2013-09-11 14:07:00,98.4,20.3,29.10,WSW,248,3.0,15.0,6,0.00,,,0.00,meteohub,2013-09-11 19:07:00,
2013-09-11 14:12:00,99.0,16.3,29.10,SW,225,6.0,15.0,5,0.00,,,0.00,meteohub,2013-09-11 19:12:00,
2013-09-11 14:17:00,98.1,19.9,29.10,SSW,202,13.0,15.0,6,0.00,,,0.00,meteohub,2013-09-11 19:17:00,
2013-09-11 14:22:00,97.9,19.8,29.10,WSW,248,2.0,17.0,6,0.00,,,0.00,meteohub,2013-09-11 19:22:00,
2013-09-11 14:27:00,98.4,20.3,29.10,South,180,11.0,17.0,6,0.00,,,0.00,meteohub,2013-09-11 19:27:00,
2013-09-11 14:32:00,98.2,20.1,29.10,WSW,248,7.0,17.0,6,0.00,,,0.00,meteohub,2013-09-11 19:32:00,
2013-09-11 14:37:00,98.6,16.2,29.10,SSE,158,6.0,11.0,5,0.00,,,0.00,meteohub,2013-09-11 19:37:00,
2013-09-11 14:42:00,97.9,19.8,29.10,WSW,248,6.0,12.0,6,0.00,,,0.00,meteohub,2013-09-11 19:42:00,
2013-09-11 14:47:00,97.0,19.2,29.10,WNW,292,7.0,12.0,6,0.00,,,0.00,meteohub,2013-09-11 19:47:00,
2013-09-11 14:52:00,95.9,18.5,29.10,ENE,68,5.0,15.0,6,0.00,,,0.00,meteohub,2013-09-11 19:52:00,
2013-09-11 14:57:00,97.9,19.8,29.10,WSW,248,6.0,15.0,6,0.00,,,0.00,meteohub,2013-09-11 19:57:00,
2013-09-11 15:02:00,99.3,16.7,29.10,WNW,292,9.0,15.0,5,0.00,,,0.00,meteohub,2013-09-11 20:02:00,
2013-09-11 15:07:00,99.0,16.3,29.10,WSW,248,12.0,18.0,5,0.00,,,0.00,meteohub,2013-09-11 20:07:00,
2013-09-11 15:12:00,99.1,16.5,29.10,West,270,18.0,18.0,5,0.00,,,0.00,meteohub,2013-09-11 20:12:00,
2013-09-11 15:17:00,97.0,19.2,29.10,West,270,9.0,18.0,6,0.00,,,0.00,meteohub,2013-09-11 20:17:00,
2013-09-11 15:22:00,95.9,18.5,29.10,WSW,248,6.0,18.0,6,0.00,,,0.00,meteohub,2013-09-11 20:22:00,
2013-09-11 15:27:00,95.2,18.0,29.10,WNW,292,6.0,18.0,6,0.00,,,0.00,meteohub,2013-09-11 20:27:00,
2013-09-11 15:32:00,95.2,18.0,29.13,NW,315,9.0,13.0,6,0.00,,,0.00,meteohub,2013-09-11 20:32:00,
2013-09-11 15:37:00,96.1,18.5,29.13,WNW,292,14.0,17.0,6,0.00,,,0.00,meteohub,2013-09-11 20:37:00,
2013-09-11 15:42:00,96.4,18.9,29.13,WNW,292,8.0,17.0,6,0.00,,,0.00,meteohub,2013-09-11 20:42:00,
2013-09-11 15:47:00,94.3,17.2,29.10,NNW,338,6.0,17.0,6,0.00,,,0.00,meteohub,2013-09-11 20:47:00,
2013-09-11 15:52:00,90.3,18.0,29.10,NNW,338,5.0,15.0,7,0.00,,,0.00,meteohub,2013-09-11 20:52:00,
2013-09-11 15:57:00,89.1,20.1,29.10,NNW,338,11.0,15.0,8,0.00,,,0.00,meteohub,2013-09-11 20:57:00,
2013-09-11 16:02:00,89.6,17.4,29.13,North,0,8.0,13.0,7,0.00,,,0.00,meteohub,2013-09-11 21:02:00,
2013-09-11 16:07:00,87.1,12.2,29.13,NNW,338,3.0,11.0,6,0.00,,,0.00,meteohub,2013-09-11 21:07:00,
2013-09-11 16:12:00,87.1,12.2,29.13,WNW,292,2.0,11.0,6,0.00,,,0.00,meteohub,2013-09-11 21:12:00,
2013-09-11 16:17:00,87.1,12.2,29.10,WNW,292,4.0,11.0,6,0.00,,,0.00,meteohub,2013-09-11 21:17:00,
2013-09-11 16:22:00,86.2,11.5,29.10,NNW,338,8.0,11.0,6,0.00,,,0.00,meteohub,2013-09-11 21:22:00,
2013-09-11 16:27:00,85.8,11.3,29.10,NNW,338,6.0,9.0,6,0.00,,,0.00,meteohub,2013-09-11 21:27:00,
2013-09-11 16:32:00,83.5,9.7,29.13,NNW,338,4.0,10.0,6,0.00,,,0.00,meteohub,2013-09-11 21:32:00,
2013-09-11 16:37:00,81.9,11.8,29.13,WNW,292,4.0,13.0,7,0.00,,,0.00,meteohub,2013-09-11 21:37:00,
2013-09-11 16:42:00,81.0,11.3,29.13,WNW,292,6.0,13.0,7,0.00,,,0.00,meteohub,2013-09-11 21:42:00,
2013-09-11 16:47:00,78.6,17.6,29.13,North,0,3.0,13.0,10,0.00,,,0.00,meteohub,2013-09-11 21:47:00,
2013-09-11 16:52:00,77.2,26.1,29.13,WNW,292,6.0,12.0,15,0.00,,,0.00,meteohub,2013-09-11 21:52:00,
2013-09-11 16:57:00,76.5,33.6,29.13,NNW,338,3.0,12.0,21,0.00,,,0.00,meteohub,2013-09-11 21:57:00,
2013-09-11 17:02:00,75.7,34.2,29.13,ESE,112,1.0,10.0,22,0.00,,,0.00,meteohub,2013-09-11 22:02:00,
2013-09-11 17:07:00,75.0,34.7,29.13,ESE,112,0.0,10.0,23,0.00,,,0.00,meteohub,2013-09-11 22:07:00,
2013-09-11 17:12:00,74.8,34.5,29.13,NE,45,0.0,10.0,23,0.00,,,0.00,meteohub,2013-09-11 22:12:00,
2013-09-11 17:17:00,74.8,35.6,29.13,East,90,1.0,4.0,24,0.00,,,0.00,meteohub,2013-09-11 22:17:00,
2013-09-11 17:22:00,74.7,38.5,29.13,North,0,0.0,2.0,27,0.00,,,0.00,meteohub,2013-09-11 22:22:00,
2013-09-11 17:27:00,74.7,41.2,29.13,NNW,338,0.0,3.0,30,0.00,,,0.00,meteohub,2013-09-11 22:27:00,
2013-09-11 17:32:00,74.7,41.2,29.13,NNW,338,1.0,3.0,30,0.00,,,0.00,meteohub,2013-09-11 22:32:00,
2013-09-11 17:37:00,74.8,41.4,29.13,North,0,0.0,3.0,30,0.00,,,0.00,meteohub,2013-09-11 22:37:00,
2013-09-11 17:42:00,74.8,42.3,29.13,North,0,3.0,3.0,31,0.00,,,0.00,meteohub,2013-09-11 22:42:00,
2013-09-11 17:47:00,75.2,41.7,29.13,NW,315,2.0,4.0,30,0.00,,,0.00,meteohub,2013-09-11 22:47:00,
2013-09-11 17:52:00,75.4,41.0,29.13,North,0,2.0,4.0,29,0.00,,,0.00,meteohub,2013-09-11 22:52:00,
2013-09-11 17:57:00,75.6,40.3,29.13,NNW,338,0.0,4.0,28,0.00,,,0.00,meteohub,2013-09-11 22:57:00,
2013-09-11 18:02:00,75.6,39.2,29.16,WNW,292,2.0,3.0,27,0.00,,,0.00,meteohub,2013-09-11 23:02:00,
2013-09-11 18:07:00,75.6,38.3,29.16,WNW,292,0.0,4.0,26,0.00,,,0.00,meteohub,2013-09-11 23:07:00,
2013-09-11 18:12:00,75.4,38.1,29.16,NNW,338,0.0,4.0,26,0.00,,,0.00,meteohub,2013-09-11 23:12:00,
2013-09-11 18:17:00,75.2,37.9,29.13,NW,315,0.0,4.0,26,0.00,,,0.00,meteohub,2013-09-11 23:17:00,
2013-09-11 18:22:00,75.0,38.8,29.13,NNW,338,2.0,3.0,27,0.00,,,0.00,meteohub,2013-09-11 23:22:00,
2013-09-11 18:27:00,75.0,38.8,29.13,North,0,0.0,3.0,27,0.00,,,0.00,meteohub,2013-09-11 23:27:00,
2013-09-11 18:32:00,75.0,37.8,29.13,WNW,292,0.0,3.0,26,0.00,,,0.00,meteohub,2013-09-11 23:32:00,
2013-09-11 18:37:00,75.0,38.8,29.13,NNW,338,0.0,3.0,27,0.00,,,0.00,meteohub,2013-09-11 23:37:00,
2013-09-11 18:42:00,74.8,38.7,29.13,NNW,338,0.0,3.0,27,0.00,,,0.00,meteohub,2013-09-11 23:42:00,
2013-09-11 18:47:00,74.7,39.4,29.13,WNW,292,1.0,3.0,28,0.00,,,0.00,meteohub,2013-09-11 23:47:00,
2013-09-11 18:52:00,74.5,39.2,29.13,WNW,292,5.0,5.0,28,0.00,,,0.00,meteohub,2013-09-11 23:52:00,
2013-09-11 18:57:00,74.5,39.2,29.13,WNW,292,0.0,5.0,28,0.00,,,0.00,meteohub,2013-09-11 23:57:00,
2013-09-11 19:02:00,74.3,38.1,29.13,NNW,338,0.0,5.0,27,0.00,,,0.00,meteohub,2013-09-12 00:02:00,
2013-09-11 19:07:00,74.1,38.1,29.13,NNW,338,0.0,5.0,27,0.00,,,0.00,meteohub,2013-09-12 00:07:00,
2013-09-11 19:12:00,73.9,38.8,29.13,NNW,338,0.0,3.0,28,0.00,,,0.00,meteohub,2013-09-12 00:12:00,
2013-09-11 19:17:00,73.8,38.7,29.13,WNW,292,0.0,4.0,28,0.00,,,0.00,meteohub,2013-09-12 00:17:00,
2013-09-11 19:22:00,73.8,38.7,29.13,WNW,292,0.0,4.0,28,0.00,,,0.00,meteohub,2013-09-12 00:22:00,
2013-09-11 19:27:00,73.6,38.5,29.13,North,0,0.0,4.0,28,0.00,,,0.00,meteohub,2013-09-12 00:27:00,
2013-09-11 19:31:00,73.4,38.3,29.16,WNW,292,0.0,3.0,28,0.00,,,0.00,meteohub,2013-09-12 00:31:00,
2013-09-11 19:37:00,73.2,38.1,29.16,NNW,338,0.0,3.0,28,0.00,,,0.00,meteohub,2013-09-12 00:37:00,
2013-09-11 19:42:00,73.0,37.0,29.16,NNW,338,0.0,3.0,27,0.00,,,0.00,meteohub,2013-09-12 00:42:00,
2013-09-11 19:47:00,72.9,37.0,29.16,NNE,22,0.0,3.0,27,0.00,,,0.00,meteohub,2013-09-12 00:47:00,
2013-09-11 19:52:00,72.7,35.8,29.16,East,90,0.0,3.0,26,0.00,,,0.00,meteohub,2013-09-12 00:52:00,
2013-09-11 19:57:00,72.7,35.8,29.16,North,0,0.0,0.0,26,0.00,,,0.00,meteohub,2013-09-12 00:57:00,
2013-09-11 20:02:00,72.5,35.8,29.16,North,0,0.0,0.0,26,0.00,,,0.00,meteohub,2013-09-12 01:02:00,
2013-09-11 20:07:00,72.3,35.6,29.16,North,0,0.0,0.0,26,0.00,,,0.00,meteohub,2013-09-12 01:07:00,
2013-09-11 20:12:00,72.3,35.6,29.16,North,0,0.0,0.0,26,0.00,,,0.00,meteohub,2013-09-12 01:12:00,
2013-09-11 20:17:00,72.1,35.4,29.16,East,90,0.0,0.0,26,0.00,,,0.00,meteohub,2013-09-12 01:17:00,
2013-09-11 20:22:00,72.0,35.2,29.16,East,90,0.0,0.0,26,0.00,,,0.00,meteohub,2013-09-12 01:22:00,
2013-09-11 20:27:00,72.0,35.2,29.16,East,90,0.0,0.0,26,0.00,,,0.00,meteohub,2013-09-12 01:27:00,
2013-09-11 20:32:00,71.8,35.1,29.16,East,90,0.0,0.0,26,0.00,,,0.00,meteohub,2013-09-12 01:32:00,
2013-09-11 20:37:00,71.4,35.8,29.16,East,90,0.0,0.0,27,0.00,,,0.00,meteohub,2013-09-12 01:37:00,
2013-09-11 20:42:00,71.2,36.5,29.16,East,90,0.0,0.0,28,0.00,,,0.00,meteohub,2013-09-12 01:42:00,
2013-09-11 20:47:00,70.9,37.0,29.16,East,90,0.0,0.0,29,0.00,,,0.00,meteohub,2013-09-12 01:47:00,
2013-09-11 20:52:00,70.7,37.8,29.16,East,90,0.0,0.0,30,0.00,,,0.00,meteohub,2013-09-12 01:52:00,
2013-09-11 20:57:00,70.5,37.6,29.16,East,90,0.0,0.0,30,0.00,,,0.00,meteohub,2013-09-12 01:57:00,
2013-09-11 21:02:00,70.2,39.0,29.16,East,90,0.0,0.0,32,0.00,,,0.00,meteohub,2013-09-12 02:02:00,
2013-09-11 21:07:00,70.0,38.8,29.16,East,90,0.0,0.0,32,0.00,,,0.00,meteohub,2013-09-12 02:07:00,
2013-09-11 21:12:00,70.2,39.0,29.16,East,90,0.0,0.0,32,0.00,,,0.00,meteohub,2013-09-12 02:12:00,
2013-09-11 21:17:00,70.3,39.2,29.16,East,90,0.0,0.0,32,0.00,,,0.00,meteohub,2013-09-12 02:17:00,
2013-09-11 21:22:00,70.5,39.2,29.16,East,90,0.0,0.0,32,0.00,,,0.00,meteohub,2013-09-12 02:22:00,
2013-09-11 21:27:00,70.3,39.2,29.16,East,90,0.0,0.0,32,0.00,,,0.00,meteohub,2013-09-12 02:27:00,
2013-09-11 21:32:00,70.3,39.2,29.16,East,90,0.0,0.0,32,0.00,,,0.00,meteohub,2013-09-12 02:32:00,
2013-09-11 21:37:00,70.3,39.2,29.16,East,90,0.0,0.0,32,0.00,,,0.00,meteohub,2013-09-12 02:37:00,
2013-09-11 21:42:00,70.5,40.1,29.16,SSW,202,0.0,0.0,33,0.00,,,0.00,meteohub,2013-09-12 02:42:00,
2013-09-11 21:47:00,70.7,40.3,29.16,West,270,0.0,2.0,33,0.00,,,0.00,meteohub,2013-09-12 02:47:00,
2013-09-11 21:52:00,70.5,40.1,29.16,West,270,0.0,2.0,33,0.00,,,0.00,meteohub,2013-09-12 02:52:00,
2013-09-11 21:57:00,70.5,40.1,29.16,West,270,0.0,2.0,33,0.00,,,0.00,meteohub,2013-09-12 02:57:00,
2013-09-11 22:02:00,70.5,40.1,29.13,West,270,0.0,0.0,33,0.00,,,0.00,meteohub,2013-09-12 03:02:00,
2013-09-11 22:07:00,70.5,40.1,29.13,SSE,158,0.0,0.0,33,0.00,,,0.00,meteohub,2013-09-12 03:07:00,
2013-09-11 22:12:00,71.1,41.4,29.13,SSE,158,0.0,0.0,34,0.00,,,0.00,meteohub,2013-09-12 03:12:00,
2013-09-11 22:17:00,71.4,42.4,29.16,SSW,202,2.0,5.0,35,0.00,,,0.00,meteohub,2013-09-12 03:17:00,
2013-09-11 22:22:00,71.4,41.5,29.16,SSE,158,2.0,5.0,34,0.00,,,0.00,meteohub,2013-09-12 03:22:00,
2013-09-11 22:27:00,71.6,41.7,29.16,SE,135,3.0,5.0,34,0.00,,,0.00,meteohub,2013-09-12 03:27:00,
2013-09-11 22:32:00,71.6,41.7,29.16,SE,135,4.0,7.0,34,0.00,,,0.00,meteohub,2013-09-12 03:32:00,
2013-09-11 22:37:00,71.6,41.0,29.16,SSW,202,3.0,7.0,33,0.00,,,0.00,meteohub,2013-09-12 03:37:00,
2013-09-11 22:42:00,71.8,41.2,29.13,South,180,0.0,7.0,33,0.00,,,0.00,meteohub,2013-09-12 03:42:00,
2013-09-11 22:47:00,71.6,41.0,29.13,South,180,0.0,6.0,33,0.00,,,0.00,meteohub,2013-09-12 03:47:00,
2013-09-11 22:52:00,71.8,41.2,29.13,WSW,248,0.0,6.0,33,0.00,,,0.00,meteohub,2013-09-12 03:52:00,
2013-09-11 22:57:00,71.8,41.2,29.13,SSW,202,1.0,4.0,33,0.00,,,0.00,meteohub,2013-09-12 03:57:00,
2013-09-11 23:01:00,71.6,41.0,29.13,SSE,158,0.0,4.0,33,0.00,,,0.00,meteohub,2013-09-12 04:01:00,
2013-09-11 23:06:00,71.6,40.3,29.13,South,180,0.0,3.0,32,0.00,,,0.00,meteohub,2013-09-12 04:06:00,
2013-09-11 23:11:00,71.4,40.8,29.13,South,180,0.0,3.0,33,0.00,,,0.00,meteohub,2013-09-12 04:11:00,
2013-09-11 23:17:00,71.2,40.6,29.13,South,180,0.0,2.0,33,0.00,,,0.00,meteohub,2013-09-12 04:17:00,
2013-09-11 23:22:00,71.1,39.7,29.13,South,180,0.0,0.0,32,0.00,,,0.00,meteohub,2013-09-12 04:22:00,
2013-09-11 23:27:00,71.2,40.6,29.13,South,180,0.0,0.0,33,0.00,,,0.00,meteohub,2013-09-12 04:27:00,
2013-09-11 23:32:00,71.4,41.5,29.13,SSE,158,0.0,1.0,34,0.00,,,0.00,meteohub,2013-09-12 04:32:00,
2013-09-11 23:37:00,71.4,41.5,29.13,SSW,202,0.0,3.0,34,0.00,,,0.00,meteohub,2013-09-12 04:37:00,
2013-09-11 23:42:00,71.4,41.5,29.13,SSW,202,0.0,3.0,34,0.00,,,0.00,meteohub,2013-09-12 04:42:00,
2013-09-11 23:47:00,71.4,41.5,29.13,SW,225,1.0,5.0,34,0.00,,,0.00,meteohub,2013-09-12 04:47:00,
2013-09-11 23:52:00,71.4,41.5,29.13,SW,225,4.0,5.0,34,0.00,,,0.00,meteohub,2013-09-12 04:52:00,
2013-09-11 23:57:00,71.4,41.5,29.13,SSW,202,4.0,6.0,34,0.00,,,0.00,meteohub,2013-09-12 04:57:00,